When you browse on this site, cookies collect data to enhance your experience and personalize the content and advertising you see.
Visit our Privacy Policy to learn more. By continuing to use the site, you agree to this use of cookies and data.
  • în România
  • Lista ţărilor
  • Pe 7 zile
  • Temperatura apei
  • Hartă satelitară
  • Meteo pe hartă
  • Widget-uri
  • user-avatar
    Intrare

    Meteo pe oră la Biryubash

    Astăzi, 20 Februarie, Miercuri

    Timp Temperatura Precipitaţii Vânt Presiune Umiditate
    00:00 -18°C° 0 mm 2 m/s 741 mmHg 96%
    01:00 -19°C° 0 mm 2 m/s 741 mmHg 96%
    02:00 -18°C° 0 mm 1 m/s 741 mmHg 97%
    03:00 -19°C° 0 mm 1 m/s 741 mmHg 98%
    04:00 -19°C° 0 mm 0 m/s 741 mmHg 99%
    05:00 -20°C° 0 mm 0 m/s 742 mmHg 98%
    06:00 -20°C° 0 mm 0 m/s 742 mmHg 98%
    07:00 -20°C° 0 mm 0 m/s 742 mmHg 98%
    08:00 -18°C° 0 mm 1 m/s 742 mmHg 96%
    09:00 -17°C° 0 mm 1 m/s 743 mmHg 94%
    10:00 -17°C° 0 mm 2 m/s 743 mmHg 92%
    11:00 -16°C° 0 mm 2 m/s 743 mmHg 91%
    12:00 -16°C° 0 mm 3 m/s 743 mmHg 90%
    13:00 -15°C° 0 mm 3 m/s 743 mmHg 89%
    14:00 -15°C° 0 mm 3 m/s 743 mmHg 90%
    15:00 -15°C° 0 mm 4 m/s 742 mmHg 90%
    16:00 -15°C° 0 mm 4 m/s 742 mmHg 90%
    17:00 -16°C° 0 mm 4 m/s 742 mmHg 91%
    18:00 -17°C° 0 mm 5 m/s 742 mmHg 91%
    19:00 -18°C° 0 mm 5 m/s 742 mmHg 92%
    20:00 -17°C° 0 mm 6 m/s 741 mmHg 91%
    21:00 -16°C° 0 mm 6 m/s 741 mmHg 91%
    22:00 -17°C° 0 mm 7 m/s 741 mmHg 91%
    23:00 -17°C° 0 mm 7 m/s 741 mmHg 91%

    Mâine, 21 Februarie, Joi

    Timp Temperatura Precipitaţii Vânt Presiune Umiditate
    00:00 -15°C° 0 mm 7 m/s 740 mmHg 91%
    01:00 -15°C° 0 mm 6 m/s 740 mmHg 91%
    02:00 -14°C° 0.1 mm 7 m/s 740 mmHg 91%
    03:00 -14°C° 0.1 mm 7 m/s 740 mmHg 91%
    04:00 -13°C° 0.1 mm 7 m/s 739 mmHg 91%
    05:00 -12°C° 0.1 mm 7 m/s 739 mmHg 92%
    06:00 -12°C° 0.1 mm 7 m/s 739 mmHg 92%
    07:00 -11°C° 0.1 mm 7 m/s 739 mmHg 92%
    08:00 -11°C° 0.1 mm 7 m/s 739 mmHg 91%
    09:00 -9°C° 0.1 mm 7 m/s 739 mmHg 91%
    10:00 -9°C° 0.1 mm 7 m/s 739 mmHg 91%
    11:00 -9°C° 0.1 mm 7 m/s 739 mmHg 91%
    12:00 -9°C° 0.1 mm 7 m/s 739 mmHg 92%
    13:00 -8°C° 0.1 mm 7 m/s 740 mmHg 92%
    14:00 -8°C° 0.2 mm 7 m/s 740 mmHg 92%
    15:00 -8°C° 0.2 mm 6 m/s 740 mmHg 92%
    16:00 -8°C° 0.2 mm 6 m/s 740 mmHg 92%
    17:00 -8°C° 0.3 mm 6 m/s 740 mmHg 92%
    18:00 -8°C° 0.3 mm 6 m/s 741 mmHg 92%
    19:00 -8°C° 0.3 mm 6 m/s 741 mmHg 92%
    20:00 -8°C° 0.2 mm 7 m/s 741 mmHg 92%
    21:00 -8°C° 0.2 mm 7 m/s 741 mmHg 92%
    22:00 -8°C° 0.2 mm 7 m/s 741 mmHg 92%
    23:00 -6°C° 0.3 mm 6 m/s 741 mmHg 92%

    Poimâine, 22 Februarie, Vineri

    Timp Temperatura Precipitaţii Vânt Presiune Umiditate
    00:00 -6°C° 0.3 mm 6 m/s 741 mmHg 92%
    01:00 -5°C° 0.3 mm 6 m/s 741 mmHg 92%
    02:00 -5°C° 0.2 mm 6 m/s 741 mmHg 92%
    03:00 -4°C° 0.2 mm 7 m/s 741 mmHg 91%
    04:00 -4°C° 0.2 mm 7 m/s 741 mmHg 90%
    05:00 -6°C° 0.1 mm 7 m/s 741 mmHg 90%
    06:00 -6°C° 0.1 mm 7 m/s 741 mmHg 90%
    07:00 -6°C° 0.1 mm 7 m/s 740 mmHg 90%
    08:00 -6°C° 0.1 mm 7 m/s 741 mmHg 90%
    09:00 -6°C° 0.1 mm 7 m/s 741 mmHg 90%
    10:00 -6°C° 0.1 mm 7 m/s 741 mmHg 90%
    11:00 -6°C° 0.1 mm 7 m/s 741 mmHg 90%
    12:00 -4°C° 0.1 mm 7 m/s 741 mmHg 90%
    13:00 -4°C° 0.1 mm 7 m/s 741 mmHg 90%
    14:00 -4°C° 0.2 mm 6 m/s 741 mmHg 90%
    15:00 -3°C° 0.2 mm 6 m/s 741 mmHg 89%
    16:00 -3°C° 0.2 mm 6 m/s 741 mmHg 88%
    17:00 -2°C° 0.2 mm 5 m/s 741 mmHg 89%
    18:00 -4°C° 0.2 mm 5 m/s 741 mmHg 91%
    19:00 -3°C° 0.2 mm 4 m/s 741 mmHg 92%
    20:00 -3°C° 0.4 mm 4 m/s 741 mmHg 92%
    21:00 -3°C° 0.4 mm 4 m/s 742 mmHg 92%
    22:00 -3°C° 0.4 mm 4 m/s 742 mmHg 92%
    23:00 -6°C° 0.2 mm 5 m/s 743 mmHg 91%

    23 Februarie, Sâmbătă

    Timp Temperatura Precipitaţii Vânt Presiune Umiditate
    00:00 -8°C° 0.2 mm 5 m/s 743 mmHg 90%
    01:00 -11°C° 0.2 mm 5 m/s 744 mmHg 88%
    02:00 -12°C° 0 mm 5 m/s 744 mmHg 90%
    03:00 -12°C° 0 mm 4 m/s 745 mmHg 91%
    04:00 -14°C° 0 mm 4 m/s 745 mmHg 93%
    05:00 -14°C° 0.1 mm 4 m/s 746 mmHg 93%
    06:00 -12°C° 0.1 mm 4 m/s 746 mmHg 93%
    07:00 -11°C° 0.1 mm 4 m/s 747 mmHg 93%
    08:00 -12°C° 0.1 mm 5 m/s 747 mmHg 92%
    09:00 -11°C° 0.1 mm 5 m/s 747 mmHg 92%
    10:00 -11°C° 0.1 mm 5 m/s 748 mmHg 91%
    11:00 -10°C° 0.1 mm 5 m/s 748 mmHg 91%
    12:00 -10°C° 0.1 mm 5 m/s 748 mmHg 90%
    13:00 -9°C° 0.1 mm 4 m/s 748 mmHg 90%
    14:00 -9°C° 0.2 mm 4 m/s 748 mmHg 90%
    15:00 -9°C° 0.2 mm 4 m/s 748 mmHg 90%
    16:00 -9°C° 0.2 mm 4 m/s 748 mmHg 91%
    17:00 -9°C° 0.1 mm 4 m/s 749 mmHg 92%
    18:00 -9°C° 0.1 mm 4 m/s 749 mmHg 93%
    19:00 -10°C° 0.1 mm 4 m/s 749 mmHg 94%
    20:00 -10°C° 0.1 mm 4 m/s 749 mmHg 95%
    21:00 -9°C° 0.1 mm 3 m/s 750 mmHg 95%
    22:00 -9°C° 0.1 mm 3 m/s 750 mmHg 95%
    23:00 -11°C° 0.1 mm 4 m/s 750 mmHg 95%

    24 Februarie, Duminică

    Timp Temperatura Precipitaţii Vânt Presiune Umiditate
    00:00 -11°C° 0.1 mm 4 m/s 750 mmHg 95%
    01:00 -11°C° 0.1 mm 4 m/s 750 mmHg 95%
    02:00 -11°C° 0.1 mm 4 m/s 751 mmHg 95%
    03:00 -11°C° 0.1 mm 4 m/s 751 mmHg 95%
    04:00 -10°C° 0.1 mm 4 m/s 751 mmHg 95%
    05:00 -10°C° 0.1 mm 4 m/s 751 mmHg 95%
    06:00 -10°C° 0.1 mm 4 m/s 751 mmHg 95%
    07:00 -10°C° 0.1 mm 4 m/s 752 mmHg 95%
    08:00 -10°C° 0.1 mm 4 m/s 752 mmHg 95%
    09:00 -10°C° 0.1 mm 4 m/s 752 mmHg 94%
    10:00 -10°C° 0.1 mm 5 m/s 752 mmHg 94%
    11:00 -10°C° 0.2 mm 5 m/s 752 mmHg 93%
    12:00 -10°C° 0.2 mm 5 m/s 752 mmHg 91%
    13:00 -10°C° 0.2 mm 6 m/s 752 mmHg 90%
    14:00 -10°C° 0.1 mm 6 m/s 752 mmHg 90%
    15:00 -10°C° 0.1 mm 5 m/s 752 mmHg 90%
    16:00 -10°C° 0.1 mm 5 m/s 752 mmHg 89%
    17:00 -10°C° 0.1 mm 5 m/s 752 mmHg 90%
    18:00 -11°C° 0.1 mm 5 m/s 752 mmHg 91%
    19:00 -11°C° 0.1 mm 5 m/s 752 mmHg 92%
    20:00 -11°C° 0 mm 5 m/s 752 mmHg 92%
    21:00 -11°C° 0 mm 5 m/s 752 mmHg 92%
    22:00 -12°C° 0 mm 5 m/s 752 mmHg 92%
    23:00 -12°C° 0.1 mm 5 m/s 752 mmHg 92%

    25 Februarie, Luni

    Timp Temperatura Precipitaţii Vânt Presiune Umiditate
    00:00 -12°C° 0.1 mm 5 m/s 752 mmHg 93%
    01:00 -12°C° 0.1 mm 5 m/s 752 mmHg 93%
    02:00 -13°C° 0.1 mm 5 m/s 752 mmHg 94%
    03:00 -13°C° 0.1 mm 5 m/s 752 mmHg 94%
    04:00 -14°C° 0.1 mm 5 m/s 751 mmHg 94%
    05:00 -14°C° 0.1 mm 5 m/s 751 mmHg 95%
    06:00 -14°C° 0.1 mm 4 m/s 751 mmHg 95%
    07:00 -14°C° 0.1 mm 4 m/s 751 mmHg 95%
    08:00 -14°C° 0.1 mm 4 m/s 751 mmHg 95%
    09:00 -12°C° 0.1 mm 4 m/s 750 mmHg 95%
    10:00 -12°C° 0.1 mm 4 m/s 750 mmHg 94%
    11:00 -11°C° 0.1 mm 4 m/s 750 mmHg 94%
    12:00 -12°C° 0.1 mm 5 m/s 749 mmHg 93%
    13:00 -11°C° 0.1 mm 5 m/s 749 mmHg 92%
    14:00 -11°C° 0 mm 5 m/s 748 mmHg 92%
    15:00 -10°C° 0 mm 5 m/s 748 mmHg 92%
    16:00 -9°C° 0 mm 4 m/s 747 mmHg 92%
    17:00 -9°C° 0 mm 4 m/s 747 mmHg 92%
    18:00 -9°C° 0 mm 4 m/s 746 mmHg 92%
    19:00 -9°C° 0 mm 4 m/s 746 mmHg 93%
    20:00 -7°C° 0 mm 3 m/s 745 mmHg 93%
    21:00 -7°C° 0 mm 3 m/s 745 mmHg 94%
    22:00 -7°C° 0 mm 3 m/s 744 mmHg 94%
    23:00 -7°C° 0 mm 3 m/s 744 mmHg 95%
    Arată mai mult